Time,TemperatureF,DewpointF,PressureIn,WindDirection,WindDirectionDegrees,WindSpeedMPH,WindSpeedGustMPH,Humidity,HourlyPrecipIn,Conditions,Clouds,dailyrainin,SoftwareType,DateUTC
2013-02-23 00:00:00,36.4,35.4,30.05,East,96,0.0,4.0,96,0.01,,---,0.47,VWS V14.01,2013-02-23 05:00:00,
2013-02-23 00:05:00,36.4,35.4,30.05,NE,51,0.0,2.0,96,0.00,,---,0.00,VWS V14.01,2013-02-23 05:05:00,
2013-02-23 00:10:00,36.4,35.4,30.05,NE,46,0.0,2.0,96,0.00,,---,0.00,VWS V14.01,2013-02-23 05:10:00,
2013-02-23 00:15:00,36.4,35.4,30.05,East,92,0.0,3.0,96,0.00,,---,0.00,VWS V14.01,2013-02-23 05:15:00,
2013-02-23 00:20:00,36.3,35.3,30.05,East,82,0.0,4.0,96,0.00,,---,0.00,VWS V14.01,2013-02-23 05:20:00,
2013-02-23 00:25:00,36.4,35.4,30.04,East,82,0.0,4.0,96,0.00,,---,0.00,VWS V14.01,2013-02-23 05:25:00,
2013-02-23 00:30:00,36.4,35.4,30.04,ESE,103,0.0,4.0,96,0.00,,---,0.00,VWS V14.01,2013-02-23 05:30:00,
2013-02-23 00:35:00,36.4,35.4,30.04,NNE,30,0.0,2.0,96,0.00,,---,0.00,VWS V14.01,2013-02-23 05:35:00,
2013-02-23 00:40:00,36.4,35.4,30.04,NNE,30,0.0,2.0,96,0.00,,---,0.00,VWS V14.01,2013-02-23 05:40:00,
2013-02-23 00:45:00,36.4,35.4,30.04,NNE,30,0.0,2.0,96,0.00,,---,0.00,VWS V14.01,2013-02-23 05:45:00,
2013-02-23 00:50:00,36.4,35.4,30.04,NNE,30,2.0,2.0,96,0.00,,---,0.00,VWS V14.01,2013-02-23 05:50:00,
2013-02-23 00:55:00,36.4,35.4,30.04,NE,44,0.0,3.0,96,0.00,,---,0.00,VWS V14.01,2013-02-23 05:55:00,
2013-02-23 01:00:00,36.4,35.4,30.04,NE,44,0.0,3.0,96,0.00,,---,0.00,VWS V14.01,2013-02-23 06:00:00,
2013-02-23 01:05:00,36.4,35.4,30.04,NNE,24,0.0,4.0,96,0.00,,---,0.00,VWS V14.01,2013-02-23 06:05:00,
2013-02-23 01:10:00,36.4,35.4,30.04,NNE,24,0.0,4.0,96,0.00,,---,0.00,VWS V14.01,2013-02-23 06:10:00,
2013-02-23 01:15:00,36.5,35.5,30.04,NNE,24,0.0,4.0,96,0.00,,---,0.00,VWS V14.01,2013-02-23 06:15:00,
2013-02-23 01:20:00,36.5,35.5,30.04,NNE,24,0.0,4.0,96,0.00,,---,0.00,VWS V14.01,2013-02-23 06:20:00,
2013-02-23 01:25:00,36.5,35.7,30.04,NNE,24,0.0,4.0,97,0.00,,---,0.00,VWS V14.01,2013-02-23 06:25:00,
2013-02-23 01:30:00,36.5,35.7,30.04,NNE,24,0.0,4.0,97,0.01,,---,0.01,VWS V14.01,2013-02-23 06:30:00,
2013-02-23 01:35:00,36.6,35.8,30.03,NNE,24,1.0,1.0,97,0.01,,---,0.01,VWS V14.01,2013-02-23 06:35:00,
2013-02-23 01:40:00,36.6,35.8,30.03,NNE,24,0.0,1.0,97,0.01,,---,0.01,VWS V14.01,2013-02-23 06:40:00,
2013-02-23 01:45:00,36.6,35.8,30.03,NNE,24,0.0,1.0,97,0.01,,---,0.01,VWS V14.01,2013-02-23 06:45:00,
2013-02-23 01:50:00,36.6,35.8,30.03,NNE,24,0.0,1.0,97,0.01,,---,0.01,VWS V14.01,2013-02-23 06:50:00,
2013-02-23 01:55:00,36.6,35.8,30.03,NNE,24,0.0,2.0,97,0.01,,---,0.01,VWS V14.01,2013-02-23 06:55:00,
2013-02-23 02:00:00,36.6,35.8,30.03,NNE,24,0.0,2.0,97,0.01,,---,0.01,VWS V14.01,2013-02-23 07:00:00,
2013-02-23 02:05:00,36.6,35.6,30.02,NNE,24,0.0,1.0,96,0.01,,---,0.01,VWS V14.01,2013-02-23 07:05:00,
2013-02-23 02:10:00,36.7,35.9,30.02,NNE,24,0.0,1.0,97,0.01,,---,0.01,VWS V14.01,2013-02-23 07:10:00,
2013-02-23 02:15:00,36.7,35.9,30.02,NNW,348,0.0,2.0,97,0.01,,---,0.01,VWS V14.01,2013-02-23 07:15:00,
2013-02-23 02:20:00,36.8,36.0,30.04,NNW,348,1.0,2.0,97,0.01,,---,0.01,VWS V14.01,2013-02-23 07:20:00,
2013-02-23 02:25:00,36.8,36.0,30.02,NNW,348,0.0,2.0,97,0.01,,---,0.01,VWS V14.01,2013-02-23 07:25:00,
2013-02-23 02:30:00,36.8,36.0,30.02,NW,304,0.0,3.0,97,0.01,,---,0.01,VWS V14.01,2013-02-23 07:30:00,
2013-02-23 02:35:00,36.8,36.0,30.01,NW,304,0.0,1.0,97,0.00,,---,0.01,VWS V14.01,2013-02-23 07:35:00,
2013-02-23 02:40:00,36.8,36.0,30.00,ENE,61,0.0,2.0,97,0.00,,---,0.01,VWS V14.01,2013-02-23 07:40:00,
2013-02-23 02:45:00,36.8,36.0,30.01,ENE,61,0.0,2.0,97,0.00,,---,0.01,VWS V14.01,2013-02-23 07:45:00,
2013-02-23 02:50:00,36.8,36.0,30.00,ENE,61,0.0,2.0,97,0.00,,---,0.01,VWS V14.01,2013-02-23 07:50:00,
2013-02-23 02:55:00,36.8,36.0,29.99,ENE,61,0.0,2.0,97,0.00,,---,0.01,VWS V14.01,2013-02-23 07:55:00,
2013-02-23 03:00:00,36.8,36.0,30.00,ENE,61,0.0,2.0,97,0.00,,---,0.01,VWS V14.01,2013-02-23 08:00:00,
2013-02-23 03:05:00,36.8,36.0,29.99,NE,43,1.0,3.0,97,0.00,,---,0.01,VWS V14.01,2013-02-23 08:05:00,
2013-02-23 03:10:00,36.9,36.1,29.98,NE,38,0.0,3.0,97,0.00,,---,0.01,VWS V14.01,2013-02-23 08:10:00,
2013-02-23 03:15:00,36.8,36.0,29.97,NNE,27,3.0,3.0,97,0.00,,---,0.01,VWS V14.01,2013-02-23 08:15:00,
2013-02-23 03:20:00,36.9,36.1,29.98,East,96,0.0,3.0,97,0.00,,---,0.01,VWS V14.01,2013-02-23 08:20:00,
2013-02-23 03:25:00,36.9,36.1,29.97,NE,42,3.0,3.0,97,0.00,,---,0.01,VWS V14.01,2013-02-23 08:25:00,
2013-02-23 03:30:00,36.9,36.1,29.97,NE,42,1.0,3.0,97,0.00,,---,0.01,VWS V14.01,2013-02-23 08:30:00,
2013-02-23 03:35:00,37.0,36.2,29.95,ENE,63,1.0,2.0,97,0.00,,---,0.01,VWS V14.01,2013-02-23 08:35:00,
2013-02-23 03:40:00,37.0,36.2,29.95,ENE,63,0.0,2.0,97,0.00,,---,0.01,VWS V14.01,2013-02-23 08:40:00,
2013-02-23 03:45:00,37.0,36.2,29.95,ENE,63,0.0,2.0,97,0.00,,---,0.01,VWS V14.01,2013-02-23 08:45:00,
2013-02-23 03:50:00,37.1,36.3,29.95,ENE,63,1.0,2.0,97,0.00,,---,0.01,VWS V14.01,2013-02-23 08:50:00,
2013-02-23 03:55:00,37.2,36.4,29.95,NE,40,0.0,3.0,97,0.01,,---,0.02,VWS V14.01,2013-02-23 08:55:00,
2013-02-23 04:00:00,37.2,36.4,29.95,ENE,65,0.0,3.0,97,0.01,,---,0.02,VWS V14.01,2013-02-23 09:00:00,
2013-02-23 04:05:00,37.2,36.4,29.95,ENE,65,1.0,1.0,97,0.01,,---,0.02,VWS V14.01,2013-02-23 09:05:00,
2013-02-23 04:10:00,37.2,36.4,29.95,ENE,65,0.0,1.0,97,0.01,,---,0.02,VWS V14.01,2013-02-23 09:10:00,
2013-02-23 04:15:00,37.3,36.5,29.95,NNE,30,0.0,1.0,97,0.01,,---,0.02,VWS V14.01,2013-02-23 09:15:00,
2013-02-23 04:20:00,37.3,36.5,29.95,NNE,30,0.0,1.0,97,0.01,,---,0.02,VWS V14.01,2013-02-23 09:20:00,
2013-02-23 04:25:00,37.3,36.5,29.95,NNE,30,0.0,1.0,97,0.01,,---,0.02,VWS V14.01,2013-02-23 09:25:00,
2013-02-23 04:30:00,37.3,36.5,29.95,NNE,30,0.0,1.0,97,0.01,,---,0.02,VWS V14.01,2013-02-23 09:30:00,
2013-02-23 04:35:00,37.4,36.6,29.95,NNE,30,0.0,1.0,97,0.01,,---,0.02,VWS V14.01,2013-02-23 09:35:00,
2013-02-23 04:40:00,37.3,36.5,29.95,NNE,30,0.0,1.0,97,0.02,,---,0.03,VWS V14.01,2013-02-23 09:40:00,
2013-02-23 04:45:00,37.3,36.5,29.95,NNE,30,1.0,2.0,97,0.02,,---,0.03,VWS V14.01,2013-02-23 09:45:00,
2013-02-23 04:50:00,37.4,36.6,29.95,NNE,30,0.0,2.0,97,0.02,,---,0.03,VWS V14.01,2013-02-23 09:50:00,
2013-02-23 04:55:00,37.4,36.6,29.97,NNE,30,0.0,2.0,97,0.03,,---,0.04,VWS V14.01,2013-02-23 09:55:00,
2013-02-23 05:00:00,37.4,36.6,29.97,NNE,30,2.0,2.0,97,0.04,,---,0.05,VWS V14.01,2013-02-23 10:00:00,
2013-02-23 05:05:00,37.5,36.7,29.95,NE,46,1.0,4.0,97,0.04,,---,0.06,VWS V14.01,2013-02-23 10:05:00,
2013-02-23 05:10:00,37.5,36.7,29.96,NE,46,0.0,4.0,97,0.05,,---,0.07,VWS V14.01,2013-02-23 10:10:00,
2013-02-23 05:15:00,37.5,36.7,29.97,NE,46,0.0,4.0,97,0.07,,---,0.09,VWS V14.01,2013-02-23 10:15:00,
2013-02-23 05:20:00,37.5,36.7,29.96,NE,46,0.0,4.0,97,0.08,,---,0.10,VWS V14.01,2013-02-23 10:20:00,
2013-02-23 05:25:00,37.6,36.8,29.97,East,81,0.0,4.0,97,0.09,,---,0.11,VWS V14.01,2013-02-23 10:25:00,
2013-02-23 05:30:00,37.6,36.8,29.97,East,81,0.0,4.0,97,0.10,,---,0.12,VWS V14.01,2013-02-23 10:30:00,
2013-02-23 05:35:00,37.6,36.8,29.97,ESE,113,0.0,4.0,97,0.11,,---,0.13,VWS V14.01,2013-02-23 10:35:00,
2013-02-23 05:40:00,37.6,36.8,29.97,ESE,113,0.0,4.0,97,0.12,,---,0.14,VWS V14.01,2013-02-23 10:40:00,
2013-02-23 05:45:00,37.7,36.9,29.97,ESE,113,1.0,4.0,97,0.13,,---,0.15,VWS V14.01,2013-02-23 10:45:00,
2013-02-23 05:50:00,37.7,36.9,29.97,ESE,113,0.0,4.0,97,0.15,,---,0.17,VWS V14.01,2013-02-23 10:50:00,
2013-02-23 05:55:00,37.7,36.9,29.97,ESE,113,0.0,4.0,97,0.15,,---,0.17,VWS V14.01,2013-02-23 10:55:00,
2013-02-23 06:00:00,37.8,37.0,29.97,ESE,113,0.0,4.0,97,0.17,,---,0.19,VWS V14.01,2013-02-23 11:00:00,
2013-02-23 06:05:00,37.8,37.0,29.98,ESE,113,0.0,0.0,97,0.15,,---,0.20,VWS V14.01,2013-02-23 11:05:00,
2013-02-23 06:10:00,37.8,37.0,29.98,ESE,113,1.0,1.0,97,0.16,,---,0.21,VWS V14.01,2013-02-23 11:10:00,
2013-02-23 06:15:00,37.8,37.0,29.98,ESE,113,0.0,2.0,97,0.16,,---,0.21,VWS V14.01,2013-02-23 11:15:00,
2013-02-23 06:20:00,37.8,37.0,29.98,ESE,113,0.0,2.0,97,0.18,,---,0.23,VWS V14.01,2013-02-23 11:20:00,
2013-02-23 06:25:00,37.8,37.0,29.97,ESE,113,0.0,2.0,97,0.18,,---,0.23,VWS V14.01,2013-02-23 11:25:00,
2013-02-23 06:30:00,37.9,37.1,29.96,ESE,113,0.0,2.0,97,0.19,,---,0.24,VWS V14.01,2013-02-23 11:30:00,
2013-02-23 06:35:00,37.8,37.0,29.96,ESE,113,0.0,1.0,97,0.13,,---,0.25,VWS V14.01,2013-02-23 11:35:00,
2013-02-23 06:40:00,37.8,37.0,29.97,ESE,113,0.0,1.0,97,0.14,,---,0.26,VWS V14.01,2013-02-23 11:40:00,
2013-02-23 06:45:00,37.9,37.1,29.96,ESE,113,0.0,2.0,97,0.15,,---,0.27,VWS V14.01,2013-02-23 11:45:00,
2013-02-23 06:50:00,37.8,37.0,29.96,ESE,113,0.0,2.0,97,0.15,,---,0.27,VWS V14.01,2013-02-23 11:50:00,
2013-02-23 06:55:00,37.8,37.0,29.95,ESE,113,0.0,2.0,97,0.16,,---,0.28,VWS V14.01,2013-02-23 11:55:00,
2013-02-23 07:00:00,37.9,37.1,29.94,ESE,113,0.0,2.0,97,0.17,,---,0.29,VWS V14.01,2013-02-23 12:00:00,
2013-02-23 07:05:00,37.9,37.1,29.93,NNE,12,0.0,2.0,97,0.10,,---,0.29,VWS V14.01,2013-02-23 12:05:00,
2013-02-23 07:10:00,37.9,37.1,29.94,NNE,12,0.0,2.0,97,0.11,,---,0.30,VWS V14.01,2013-02-23 12:10:00,
2013-02-23 07:15:00,37.9,37.1,29.93,NE,50,0.0,2.0,97,0.12,,---,0.31,VWS V14.01,2013-02-23 12:15:00,
2013-02-23 07:20:00,37.9,37.1,29.93,East,86,1.0,2.0,97,0.12,,---,0.31,VWS V14.01,2013-02-23 12:20:00,
2013-02-23 07:25:00,37.9,37.1,29.91,NE,49,0.0,3.0,97,0.13,,---,0.32,VWS V14.01,2013-02-23 12:25:00,
2013-02-23 07:30:00,37.9,37.1,29.95,NE,49,0.0,3.0,97,0.14,,---,0.33,VWS V14.01,2013-02-23 12:30:00,
2013-02-23 07:35:00,37.9,37.1,29.93,ESE,109,0.0,2.0,97,0.10,,---,0.34,VWS V14.01,2013-02-23 12:35:00,
2013-02-23 07:40:00,37.8,37.0,29.93,NE,42,3.0,4.0,97,0.10,,---,0.34,VWS V14.01,2013-02-23 12:40:00,
2013-02-23 07:45:00,37.8,37.0,29.93,NE,42,0.0,4.0,97,0.11,,---,0.35,VWS V14.01,2013-02-23 12:45:00,
2013-02-23 07:50:00,37.8,37.0,29.92,NE,48,2.0,4.0,97,0.11,,---,0.35,VWS V14.01,2013-02-23 12:50:00,
2013-02-23 07:55:00,37.8,37.0,29.91,East,92,3.0,4.0,97,0.12,,---,0.36,VWS V14.01,2013-02-23 12:55:00,
2013-02-23 08:00:00,37.8,37.0,29.91,NNE,30,0.0,4.0,97,0.13,,---,0.37,VWS V14.01,2013-02-23 13:00:00,
2013-02-23 08:05:00,37.8,37.0,29.91,East,99,0.0,2.0,97,0.08,,---,0.37,VWS V14.01,2013-02-23 13:05:00,
2013-02-23 08:10:00,37.8,37.0,29.90,East,99,0.0,2.0,97,0.09,,---,0.38,VWS V14.01,2013-02-23 13:10:00,
2013-02-23 08:15:00,37.8,37.0,29.92,East,93,0.0,2.0,97,0.10,,---,0.39,VWS V14.01,2013-02-23 13:15:00,
2013-02-23 08:20:00,37.8,37.0,29.92,East,93,0.0,2.0,97,0.10,,---,0.39,VWS V14.01,2013-02-23 13:20:00,
2013-02-23 08:25:00,37.9,37.1,29.92,East,93,0.0,2.0,97,0.11,,---,0.40,VWS V14.01,2013-02-23 13:25:00,
2013-02-23 08:30:00,37.9,37.1,29.93,East,93,0.0,2.0,97,0.12,,---,0.41,VWS V14.01,2013-02-23 13:30:00,
2013-02-23 08:35:00,37.9,37.1,29.92,East,93,0.0,1.0,97,0.08,,---,0.41,VWS V14.01,2013-02-23 13:35:00,
2013-02-23 08:40:00,37.9,37.1,29.92,East,93,0.0,1.0,97,0.09,,---,0.42,VWS V14.01,2013-02-23 13:40:00,
2013-02-23 08:45:00,38.0,37.2,29.92,East,93,0.0,1.0,97,0.10,,---,0.43,VWS V14.01,2013-02-23 13:45:00,
2013-02-23 08:49:00,38.0,37.2,29.92,East,93,0.0,3.0,97,0.10,,---,0.43,VWS V14.01,2013-02-23 13:49:00,
2013-02-23 08:54:00,38.0,37.2,29.93,East,93,0.0,3.0,97,0.11,,---,0.44,VWS V14.01,2013-02-23 13:54:00,
2013-02-23 08:59:00,38.1,37.3,29.93,East,93,0.0,3.0,97,0.12,,---,0.45,VWS V14.01,2013-02-23 13:59:00,
2013-02-23 09:00:00,38.1,37.3,29.93,East,93,0.0,3.0,97,0.12,,---,0.45,VWS V14.01,2013-02-23 14:00:00,
2013-02-23 09:04:00,38.2,37.4,29.94,East,93,0.0,0.0,97,0.09,,---,0.46,VWS V14.01,2013-02-23 14:04:00,
2013-02-23 09:09:00,38.2,37.4,29.94,East,93,0.0,0.0,97,0.10,,---,0.47,VWS V14.01,2013-02-23 14:09:00,
2013-02-23 09:14:00,38.2,37.4,29.94,East,93,0.0,0.0,97,0.10,,---,0.47,VWS V14.01,2013-02-23 14:14:00,
2013-02-23 09:19:00,38.3,37.5,29.93,East,93,1.0,1.0,97,0.11,,---,0.48,VWS V14.01,2013-02-23 14:19:00,
2013-02-23 09:24:00,38.4,37.6,29.92,East,93,0.0,1.0,97,0.12,,---,0.49,VWS V14.01,2013-02-23 14:24:00,
2013-02-23 09:29:00,38.5,37.7,29.93,East,93,0.0,1.0,97,0.13,,---,0.50,VWS V14.01,2013-02-23 14:29:00,
2013-02-23 09:30:00,38.4,37.6,29.93,East,93,0.0,1.0,97,0.13,,---,0.50,VWS V14.01,2013-02-23 14:30:00,
2013-02-23 09:34:00,38.5,37.7,29.93,East,93,0.0,0.0,97,0.10,,---,0.51,VWS V14.01,2013-02-23 14:34:00,
2013-02-23 09:39:00,38.5,37.7,29.93,East,93,0.0,1.0,97,0.11,,---,0.52,VWS V14.01,2013-02-23 14:39:00,
2013-02-23 09:44:00,38.6,37.8,29.92,East,93,0.0,1.0,97,0.12,,---,0.53,VWS V14.01,2013-02-23 14:44:00,
2013-02-23 09:49:00,38.6,37.8,29.92,East,93,0.0,1.0,97,0.12,,---,0.53,VWS V14.01,2013-02-23 14:49:00,
2013-02-23 09:54:00,38.6,37.8,29.92,East,93,0.0,1.0,97,0.13,,---,0.54,VWS V14.01,2013-02-23 14:54:00,
2013-02-23 09:59:00,38.7,37.9,29.90,East,93,0.0,3.0,97,0.14,,---,0.55,VWS V14.01,2013-02-23 14:59:00,
2013-02-23 10:00:00,38.7,37.9,29.90,East,93,0.0,3.0,97,0.14,,---,0.55,VWS V14.01,2013-02-23 15:00:00,
2013-02-23 10:04:00,38.7,37.9,29.92,East,93,1.0,2.0,97,0.10,,---,0.55,VWS V14.01,2013-02-23 15:04:00,
2013-02-23 10:09:00,38.8,38.0,29.93,East,93,0.0,2.0,97,0.12,,---,0.57,VWS V14.01,2013-02-23 15:09:00,
2013-02-23 10:14:00,38.8,38.0,29.91,East,93,1.0,2.0,97,0.12,,---,0.57,VWS V14.01,2013-02-23 15:14:00,
2013-02-23 10:19:00,38.8,38.0,29.90,ESE,115,0.0,3.0,97,0.13,,---,0.58,VWS V14.01,2013-02-23 15:19:00,
2013-02-23 10:24:00,38.8,38.0,29.91,ESE,115,0.0,3.0,97,0.14,,---,0.59,VWS V14.01,2013-02-23 15:24:00,
2013-02-23 10:29:00,38.9,38.1,29.90,ESE,115,2.0,3.0,97,0.15,,---,0.60,VWS V14.01,2013-02-23 15:29:00,
2013-02-23 10:30:00,38.9,38.1,29.90,ESE,115,0.0,3.0,97,0.15,,---,0.60,VWS V14.01,2013-02-23 15:30:00,
2013-02-23 10:34:00,38.9,38.1,29.91,ESE,115,0.0,0.0,97,0.10,,---,0.60,VWS V14.01,2013-02-23 15:34:00,
2013-02-23 10:39:00,38.9,38.1,29.90,ESE,115,0.0,0.0,97,0.11,,---,0.61,VWS V14.01,2013-02-23 15:39:00,
2013-02-23 10:44:00,39.0,38.2,29.91,SW,214,0.0,3.0,97,0.12,,---,0.62,VWS V14.01,2013-02-23 15:44:00,
2013-02-23 10:49:00,39.0,38.2,29.91,SW,214,0.0,3.0,97,0.12,,---,0.62,VWS V14.01,2013-02-23 15:49:00,
2013-02-23 10:54:00,39.1,38.3,29.91,SW,214,0.0,3.0,97,0.13,,---,0.63,VWS V14.01,2013-02-23 15:54:00,
2013-02-23 10:59:00,39.2,38.4,29.90,SW,214,0.0,3.0,97,0.13,,---,0.63,VWS V14.01,2013-02-23 15:59:00,
2013-02-23 11:00:00,39.2,38.4,29.91,SW,214,0.0,3.0,97,0.13,,---,0.63,VWS V14.01,2013-02-23 16:00:00,
2013-02-23 11:04:00,39.2,38.4,29.91,SW,214,0.0,0.0,97,0.09,,---,0.64,VWS V14.01,2013-02-23 16:04:00,
2013-02-23 11:09:00,39.3,38.5,29.91,SW,214,0.0,0.0,97,0.10,,---,0.65,VWS V14.01,2013-02-23 16:09:00,
2013-02-23 11:14:00,39.4,38.6,29.90,SW,214,0.0,0.0,97,0.10,,---,0.65,VWS V14.01,2013-02-23 16:14:00,
2013-02-23 11:19:00,39.5,38.7,29.89,SW,214,0.0,1.0,97,0.11,,---,0.66,VWS V14.01,2013-02-23 16:19:00,
2013-02-23 11:24:00,39.5,38.7,29.89,SSW,209,0.0,2.0,97,0.12,,---,0.67,VWS V14.01,2013-02-23 16:24:00,
2013-02-23 11:29:00,39.6,38.8,29.90,SSW,209,0.0,2.0,97,0.12,,---,0.67,VWS V14.01,2013-02-23 16:29:00,
2013-02-23 11:30:00,39.6,38.8,29.90,SSW,209,0.0,2.0,97,0.12,,---,0.67,VWS V14.01,2013-02-23 16:30:00,
2013-02-23 11:34:00,39.7,38.9,29.89,SSW,209,0.0,0.0,97,0.08,,---,0.68,VWS V14.01,2013-02-23 16:34:00,
2013-02-23 11:39:00,39.8,39.3,29.89,SSW,209,0.0,2.0,98,0.09,,---,0.69,VWS V14.01,2013-02-23 16:39:00,
2013-02-23 11:44:00,39.8,39.3,29.89,SSW,209,0.0,2.0,98,0.09,,---,0.69,VWS V14.01,2013-02-23 16:44:00,
2013-02-23 11:49:00,39.9,39.4,29.89,SSW,209,0.0,2.0,98,0.09,,---,0.69,VWS V14.01,2013-02-23 16:49:00,
2013-02-23 11:54:00,40.0,39.5,29.88,SSW,209,0.0,2.0,98,0.10,,---,0.70,VWS V14.01,2013-02-23 16:54:00,
2013-02-23 11:59:00,40.1,39.3,29.88,SSW,209,1.0,2.0,97,0.10,,---,0.70,VWS V14.01,2013-02-23 16:59:00,
2013-02-23 12:00:00,40.2,39.4,29.89,SSW,209,0.0,2.0,97,0.10,,---,0.70,VWS V14.01,2013-02-23 17:00:00,
2013-02-23 12:04:00,40.2,39.4,29.89,SSW,209,0.0,1.0,97,0.07,,---,0.70,VWS V14.01,2013-02-23 17:04:00,
2013-02-23 12:09:00,40.3,39.5,29.88,SSW,209,0.0,1.0,97,0.08,,---,0.71,VWS V14.01,2013-02-23 17:09:00,
2013-02-23 12:14:00,40.3,39.5,29.87,SSW,209,0.0,1.0,97,0.08,,---,0.71,VWS V14.01,2013-02-23 17:14:00,
2013-02-23 12:19:00,40.4,39.6,29.88,SSW,209,0.0,2.0,97,0.08,,---,0.71,VWS V14.01,2013-02-23 17:19:00,
2013-02-23 12:24:00,40.5,40.0,29.88,SSW,209,0.0,2.0,98,0.08,,---,0.71,VWS V14.01,2013-02-23 17:24:00,
2013-02-23 12:29:00,40.6,40.1,29.87,SSW,209,0.0,2.0,98,0.08,,---,0.72,VWS V14.01,2013-02-23 17:29:00,
2013-02-23 12:30:00,40.6,40.1,29.87,SSW,209,0.0,2.0,98,0.09,,---,0.72,VWS V14.01,2013-02-23 17:30:00,
2013-02-23 12:34:00,40.7,40.2,29.87,SSW,209,0.0,2.0,98,0.05,,---,0.72,VWS V14.01,2013-02-23 17:34:00,
2013-02-23 12:39:00,40.8,40.0,29.87,SSW,209,1.0,2.0,97,0.05,,---,0.72,VWS V14.01,2013-02-23 17:39:00,
2013-02-23 12:44:00,40.9,40.1,29.86,SSW,209,0.0,2.0,97,0.05,,---,0.72,VWS V14.01,2013-02-23 17:44:00,
2013-02-23 12:49:00,41.0,40.2,29.86,SSW,209,1.0,2.0,97,0.05,,---,0.72,VWS V14.01,2013-02-23 17:49:00,
2013-02-23 12:54:00,41.1,40.6,29.85,SSW,209,0.0,2.0,98,0.06,,---,0.73,VWS V14.01,2013-02-23 17:54:00,
2013-02-23 12:59:00,41.2,40.7,29.86,SSW,210,2.0,2.0,98,0.06,,---,0.73,VWS V14.01,2013-02-23 17:59:00,
2013-02-23 13:00:00,41.2,40.7,29.86,SSW,210,0.0,2.0,98,0.06,,---,0.73,VWS V14.01,2013-02-23 18:00:00,
2013-02-23 13:04:00,41.3,40.8,29.87,WNW,287,1.0,2.0,98,0.03,,---,0.73,VWS V14.01,2013-02-23 18:04:00,
2013-02-23 13:09:00,41.3,40.8,29.87,WNW,282,1.0,4.0,98,0.03,,---,0.73,VWS V14.01,2013-02-23 18:09:00,
2013-02-23 13:14:00,41.3,40.5,29.86,WNW,282,0.0,4.0,97,0.03,,---,0.73,VWS V14.01,2013-02-23 18:14:00,
2013-02-23 13:19:00,41.3,40.5,29.86,NNE,15,2.0,4.0,97,0.03,,---,0.73,VWS V14.01,2013-02-23 18:19:00,
2013-02-23 13:24:00,41.3,40.5,29.87,WNW,300,0.0,4.0,97,0.03,,---,0.73,VWS V14.01,2013-02-23 18:24:00,
2013-02-23 13:29:00,41.3,40.5,29.87,West,261,0.0,4.0,97,0.03,,---,0.73,VWS V14.01,2013-02-23 18:29:00,
2013-02-23 13:30:00,41.3,40.5,29.87,West,261,0.0,4.0,97,0.03,,---,0.73,VWS V14.01,2013-02-23 18:30:00,
2013-02-23 13:34:00,41.4,40.6,29.87,West,264,2.0,3.0,97,0.01,,---,0.73,VWS V14.01,2013-02-23 18:34:00,
2013-02-23 13:39:00,41.3,40.5,29.86,North,360,0.0,4.0,97,0.01,,---,0.73,VWS V14.01,2013-02-23 18:39:00,
2013-02-23 13:44:00,41.3,40.5,29.86,NW,321,0.0,4.0,97,0.01,,---,0.73,VWS V14.01,2013-02-23 18:44:00,
2013-02-23 13:49:00,41.3,40.5,29.86,NW,321,0.0,4.0,97,0.01,,---,0.73,VWS V14.01,2013-02-23 18:49:00,
2013-02-23 13:54:00,41.3,40.5,29.85,NW,321,0.0,4.0,97,0.01,,---,0.73,VWS V14.01,2013-02-23 18:54:00,
2013-02-23 13:59:00,41.3,40.5,29.85,NW,321,2.0,4.0,97,0.01,,---,0.73,VWS V14.01,2013-02-23 18:59:00,
2013-02-23 14:00:00,41.3,40.5,29.86,NW,321,1.0,4.0,97,0.01,,---,0.73,VWS V14.01,2013-02-23 19:00:00,
2013-02-23 14:04:00,41.3,40.5,29.86,NW,315,0.0,2.0,97,0.00,,---,0.73,VWS V14.01,2013-02-23 19:04:00,
2013-02-23 14:09:00,41.3,40.5,29.85,North,5,0.0,3.0,97,0.00,,---,0.73,VWS V14.01,2013-02-23 19:09:00,
2013-02-23 14:14:00,41.4,40.6,29.85,North,5,0.0,3.0,97,0.00,,---,0.73,VWS V14.01,2013-02-23 19:14:00,
2013-02-23 14:19:00,41.4,40.6,29.85,North,5,0.0,3.0,97,0.00,,---,0.73,VWS V14.01,2013-02-23 19:19:00,
2013-02-23 14:24:00,41.5,40.7,29.85,North,5,0.0,3.0,97,0.00,,---,0.73,VWS V14.01,2013-02-23 19:24:00,
2013-02-23 14:29:00,41.5,40.7,29.85,North,5,0.0,3.0,97,0.00,,---,0.73,VWS V14.01,2013-02-23 19:29:00,
2013-02-23 14:30:00,41.5,40.7,29.85,North,5,0.0,3.0,97,0.00,,---,0.73,VWS V14.01,2013-02-23 19:30:00,
2013-02-23 14:34:00,41.6,40.8,29.85,North,5,0.0,0.0,97,0.00,,---,0.73,VWS V14.01,2013-02-23 19:34:00,
2013-02-23 14:39:00,41.7,40.9,29.84,North,5,0.0,1.0,97,0.00,,---,0.73,VWS V14.01,2013-02-23 19:39:00,
2013-02-23 14:44:00,41.8,41.0,29.83,North,5,0.0,1.0,97,0.00,,---,0.73,VWS V14.01,2013-02-23 19:44:00,
2013-02-23 14:49:00,41.9,41.1,29.83,North,5,1.0,2.0,97,0.00,,---,0.73,VWS V14.01,2013-02-23 19:49:00,
2013-02-23 14:54:00,41.9,41.1,29.82,NW,321,0.0,2.0,97,0.00,,---,0.73,VWS V14.01,2013-02-23 19:54:00,
2013-02-23 14:59:00,41.9,41.1,29.82,NW,321,0.0,2.0,97,0.00,,---,0.73,VWS V14.01,2013-02-23 19:59:00,
2013-02-23 15:00:00,41.9,41.1,29.82,NW,321,0.0,2.0,97,0.00,,---,0.73,VWS V14.01,2013-02-23 20:00:00,
2013-02-23 15:04:00,41.9,41.1,29.82,NW,321,0.0,1.0,97,0.00,,---,0.73,VWS V14.01,2013-02-23 20:04:00,
2013-02-23 15:09:00,42.0,41.2,29.81,NW,321,0.0,1.0,97,0.00,,---,0.73,VWS V14.01,2013-02-23 20:09:00,
2013-02-23 15:14:00,42.0,41.2,29.81,NW,321,0.0,1.0,97,0.00,,---,0.73,VWS V14.01,2013-02-23 20:14:00,
2013-02-23 15:19:00,42.1,41.3,29.81,NW,321,0.0,1.0,97,0.00,,---,0.73,VWS V14.01,2013-02-23 20:19:00,
2013-02-23 15:24:00,42.2,41.4,29.81,NW,321,0.0,1.0,97,0.00,,---,0.73,VWS V14.01,2013-02-23 20:24:00,
2013-02-23 15:29:00,42.2,41.4,29.81,NW,321,0.0,2.0,97,0.00,,---,0.73,VWS V14.01,2013-02-23 20:29:00,
2013-02-23 15:30:00,42.2,41.4,29.81,NW,321,1.0,2.0,97,0.00,,---,0.73,VWS V14.01,2013-02-23 20:30:00,
2013-02-23 15:34:00,42.2,41.4,29.81,NW,321,0.0,1.0,97,0.00,,---,0.73,VWS V14.01,2013-02-23 20:34:00,
2013-02-23 15:39:00,42.3,41.5,29.80,NW,321,0.0,1.0,97,0.00,,---,0.73,VWS V14.01,2013-02-23 20:39:00,
2013-02-23 15:44:00,42.4,41.6,29.80,NW,321,0.0,2.0,97,0.00,,---,0.73,VWS V14.01,2013-02-23 20:44:00,
2013-02-23 15:49:00,42.5,41.7,29.80,NW,321,0.0,2.0,97,0.00,,---,0.73,VWS V14.01,2013-02-23 20:49:00,
2013-02-23 15:54:00,42.6,41.8,29.81,NW,321,1.0,2.0,97,0.00,,---,0.73,VWS V14.01,2013-02-23 20:54:00,
2013-02-23 15:59:00,42.7,41.9,29.81,NW,321,0.0,2.0,97,0.00,,---,0.73,VWS V14.01,2013-02-23 20:59:00,
2013-02-23 16:00:00,42.7,41.9,29.81,NW,321,1.0,2.0,97,0.00,,---,0.73,VWS V14.01,2013-02-23 21:00:00,
2013-02-23 16:04:00,42.7,41.9,29.82,NW,321,0.0,1.0,97,0.00,,---,0.73,VWS V14.01,2013-02-23 21:04:00,
2013-02-23 16:09:00,42.8,42.0,29.81,NW,325,0.0,2.0,97,0.00,,---,0.73,VWS V14.01,2013-02-23 21:09:00,
2013-02-23 16:14:00,42.7,41.9,29.82,NW,318,2.0,3.0,97,0.00,,---,0.73,VWS V14.01,2013-02-23 21:14:00,
2013-02-23 16:19:00,42.7,41.9,29.82,West,275,0.0,4.0,97,0.00,,---,0.73,VWS V14.01,2013-02-23 21:19:00,
2013-02-23 16:24:00,42.7,41.9,29.81,SW,217,0.0,4.0,97,0.00,,---,0.73,VWS V14.01,2013-02-23 21:24:00,
2013-02-23 16:29:00,42.7,41.9,29.82,NNE,13,0.0,4.0,97,0.00,,---,0.73,VWS V14.01,2013-02-23 21:29:00,
2013-02-23 16:30:00,42.7,41.9,29.82,NNE,13,0.0,4.0,97,0.00,,---,0.73,VWS V14.01,2013-02-23 21:30:00,
2013-02-23 16:34:00,42.7,41.9,29.82,West,270,0.0,4.0,97,0.00,,---,0.73,VWS V14.01,2013-02-23 21:34:00,
2013-02-23 16:39:00,42.7,41.9,29.82,West,270,0.0,4.0,97,0.00,,---,0.73,VWS V14.01,2013-02-23 21:39:00,
2013-02-23 16:44:00,42.7,41.9,29.82,West,270,0.0,4.0,97,0.00,,---,0.73,VWS V14.01,2013-02-23 21:44:00,
2013-02-23 16:49:00,42.7,41.9,29.82,West,270,0.0,4.0,97,0.00,,---,0.73,VWS V14.01,2013-02-23 21:49:00,
2013-02-23 16:54:00,42.7,41.9,29.82,West,270,0.0,4.0,97,0.00,,---,0.73,VWS V14.01,2013-02-23 21:54:00,
2013-02-23 16:59:00,42.7,41.9,29.82,West,270,0.0,4.0,97,0.00,,---,0.73,VWS V14.01,2013-02-23 21:59:00,
2013-02-23 17:00:00,42.7,41.9,29.82,West,270,0.0,4.0,97,0.00,,---,0.73,VWS V14.01,2013-02-23 22:00:00,
2013-02-23 17:04:00,42.7,41.9,29.81,West,270,0.0,0.0,97,0.00,,---,0.73,VWS V14.01,2013-02-23 22:04:00,
2013-02-23 17:09:00,42.7,41.9,29.81,West,270,0.0,0.0,97,0.00,,---,0.73,VWS V14.01,2013-02-23 22:09:00,
2013-02-23 17:14:00,42.7,41.9,29.82,West,270,0.0,1.0,97,0.00,,---,0.73,VWS V14.01,2013-02-23 22:14:00,
2013-02-23 17:19:00,42.7,41.9,29.82,West,270,0.0,1.0,97,0.00,,---,0.73,VWS V14.01,2013-02-23 22:19:00,
2013-02-23 17:24:00,42.7,41.9,29.81,West,270,0.0,1.0,97,0.00,,---,0.73,VWS V14.01,2013-02-23 22:24:00,
2013-02-23 17:29:00,42.8,42.0,29.79,West,270,0.0,1.0,97,0.00,,---,0.73,VWS V14.01,2013-02-23 22:29:00,
2013-02-23 17:30:00,42.7,41.9,29.80,West,270,0.0,1.0,97,0.00,,---,0.73,VWS V14.01,2013-02-23 22:30:00,
2013-02-23 17:34:00,42.8,42.0,29.81,West,270,0.0,1.0,97,0.00,,---,0.73,VWS V14.01,2013-02-23 22:34:00,
2013-02-23 17:39:00,42.8,42.0,29.80,West,270,0.0,1.0,97,0.00,,---,0.73,VWS V14.01,2013-02-23 22:39:00,
2013-02-23 17:44:00,42.8,42.0,29.80,West,270,0.0,1.0,97,0.00,,---,0.73,VWS V14.01,2013-02-23 22:44:00,
2013-02-23 17:49:00,42.8,42.0,29.78,West,270,0.0,1.0,97,0.00,,---,0.73,VWS V14.01,2013-02-23 22:49:00,
2013-02-23 17:54:00,42.7,41.9,29.78,West,270,0.0,1.0,97,0.00,,---,0.73,VWS V14.01,2013-02-23 22:54:00,
2013-02-23 17:59:00,42.8,42.0,29.79,West,270,0.0,1.0,97,0.00,,---,0.73,VWS V14.01,2013-02-23 22:59:00,
2013-02-23 18:00:00,42.8,42.0,29.78,West,270,0.0,1.0,97,0.00,,---,0.73,VWS V14.01,2013-02-23 23:00:00,
2013-02-23 18:04:00,42.8,42.0,29.78,West,270,0.0,0.0,97,0.00,,---,0.73,VWS V14.01,2013-02-23 23:04:00,
2013-02-23 18:09:00,42.8,42.0,29.78,West,270,0.0,0.0,97,0.00,,---,0.73,VWS V14.01,2013-02-23 23:09:00,
2013-02-23 18:14:00,42.8,42.0,29.77,West,270,0.0,0.0,97,0.00,,---,0.73,VWS V14.01,2013-02-23 23:14:00,
2013-02-23 18:19:00,42.9,42.1,29.77,West,270,0.0,0.0,97,0.00,,---,0.73,VWS V14.01,2013-02-23 23:19:00,
2013-02-23 18:24:00,42.9,42.1,29.77,West,270,0.0,0.0,97,0.00,,---,0.73,VWS V14.01,2013-02-23 23:24:00,
2013-02-23 18:29:00,42.9,42.1,29.77,West,270,0.0,0.0,97,0.00,,---,0.73,VWS V14.01,2013-02-23 23:29:00,
2013-02-23 18:30:00,42.9,42.1,29.78,West,270,0.0,0.0,97,0.00,,---,0.73,VWS V14.01,2013-02-23 23:30:00,
2013-02-23 18:34:00,42.9,42.1,29.78,West,270,0.0,0.0,97,0.00,,---,0.73,VWS V14.01,2013-02-23 23:34:00,
2013-02-23 18:39:00,42.9,42.1,29.78,West,270,0.0,0.0,97,0.00,,---,0.73,VWS V14.01,2013-02-23 23:39:00,
2013-02-23 18:44:00,42.9,42.1,29.78,West,270,0.0,0.0,97,0.00,,---,0.73,VWS V14.01,2013-02-23 23:44:00,
2013-02-23 18:49:00,42.9,42.1,29.77,West,270,0.0,1.0,97,0.00,,---,0.73,VWS V14.01,2013-02-23 23:49:00,
2013-02-23 18:54:00,42.9,42.1,29.78,West,270,0.0,1.0,97,0.00,,---,0.73,VWS V14.01,2013-02-23 23:54:00,
2013-02-23 18:59:00,42.9,42.1,29.77,West,270,0.0,1.0,97,0.00,,---,0.73,VWS V14.01,2013-02-23 23:59:00,
2013-02-23 19:00:00,42.9,42.1,29.78,West,270,0.0,1.0,97,0.00,,---,0.73,VWS V14.01,2013-02-24 00:00:00,
2013-02-23 19:04:00,42.9,42.1,29.76,West,270,0.0,0.0,97,0.00,,---,0.73,VWS V14.01,2013-02-24 00:04:00,
2013-02-23 19:09:00,42.9,42.1,29.77,West,270,0.0,0.0,97,0.00,,---,0.73,VWS V14.01,2013-02-24 00:09:00,
2013-02-23 19:14:00,42.9,42.1,29.76,West,270,0.0,0.0,97,0.00,,---,0.73,VWS V14.01,2013-02-24 00:14:00,
2013-02-23 19:19:00,42.9,42.1,29.77,West,270,0.0,0.0,97,0.00,,---,0.73,VWS V14.01,2013-02-24 00:19:00,
2013-02-23 19:24:00,42.9,42.1,29.79,West,270,0.0,0.0,97,0.00,,---,0.73,VWS V14.01,2013-02-24 00:24:00,
2013-02-23 19:29:00,42.9,42.1,29.78,West,270,0.0,0.0,97,0.00,,---,0.73,VWS V14.01,2013-02-24 00:29:00,
2013-02-23 19:30:00,42.9,42.1,29.78,West,270,0.0,0.0,97,0.00,,---,0.73,VWS V14.01,2013-02-24 00:30:00,
2013-02-23 19:34:00,42.9,42.1,29.78,West,270,0.0,0.0,97,0.00,,---,0.73,VWS V14.01,2013-02-24 00:34:00,
2013-02-23 19:39:00,43.0,42.2,29.79,West,270,0.0,0.0,97,0.00,,---,0.73,VWS V14.01,2013-02-24 00:39:00,
2013-02-23 19:44:00,42.9,42.1,29.78,West,270,0.0,0.0,97,0.00,,---,0.73,VWS V14.01,2013-02-24 00:44:00,
2013-02-23 19:49:00,42.9,42.1,29.78,West,270,0.0,0.0,97,0.00,,---,0.73,VWS V14.01,2013-02-24 00:49:00,
2013-02-23 19:54:00,42.9,42.1,29.79,West,270,0.0,0.0,97,0.00,,---,0.73,VWS V14.01,2013-02-24 00:54:00,
2013-02-23 19:59:00,42.9,42.1,29.79,West,270,0.0,0.0,97,0.00,,---,0.73,VWS V14.01,2013-02-24 00:59:00,
2013-02-23 20:00:00,42.9,42.1,29.79,West,270,0.0,0.0,97,0.00,,---,0.73,VWS V14.01,2013-02-24 01:00:00,
2013-02-23 20:04:00,42.9,42.1,29.80,West,270,0.0,0.0,97,0.00,,---,0.73,VWS V14.01,2013-02-24 01:04:00,
2013-02-23 20:09:00,42.9,42.1,29.80,West,270,0.0,0.0,97,0.00,,---,0.73,VWS V14.01,2013-02-24 01:09:00,
2013-02-23 20:14:00,42.9,42.1,29.79,West,270,0.0,0.0,97,0.00,,---,0.73,VWS V14.01,2013-02-24 01:14:00,
2013-02-23 20:19:00,42.9,42.1,29.79,West,270,0.0,0.0,97,0.00,,---,0.73,VWS V14.01,2013-02-24 01:19:00,
2013-02-23 20:24:00,42.9,42.1,29.79,West,270,0.0,0.0,97,0.00,,---,0.73,VWS V14.01,2013-02-24 01:24:00,
2013-02-23 20:29:00,43.0,42.2,29.80,West,270,0.0,0.0,97,0.00,,---,0.73,VWS V14.01,2013-02-24 01:29:00,
2013-02-23 20:30:00,43.0,42.2,29.80,West,270,0.0,0.0,97,0.00,,---,0.73,VWS V14.01,2013-02-24 01:30:00,
2013-02-23 20:34:00,43.0,42.2,29.80,West,270,0.0,0.0,97,0.00,,---,0.73,VWS V14.01,2013-02-24 01:34:00,
2013-02-23 20:39:00,43.0,42.2,29.80,West,270,0.0,0.0,97,0.00,,---,0.73,VWS V14.01,2013-02-24 01:39:00,
2013-02-23 20:44:00,43.0,42.2,29.79,West,270,0.0,0.0,97,0.00,,---,0.73,VWS V14.01,2013-02-24 01:44:00,
2013-02-23 20:49:00,43.0,42.2,29.79,West,270,0.0,0.0,97,0.00,,---,0.73,VWS V14.01,2013-02-24 01:49:00,
2013-02-23 20:54:00,43.0,42.2,29.79,West,270,0.0,0.0,97,0.00,,---,0.73,VWS V14.01,2013-02-24 01:54:00,
2013-02-23 20:59:00,43.0,42.2,29.80,West,270,0.0,0.0,97,0.00,,---,0.73,VWS V14.01,2013-02-24 01:59:00,
2013-02-23 21:00:00,43.0,42.2,29.80,West,270,0.0,0.0,97,0.00,,---,0.73,VWS V14.01,2013-02-24 02:00:00,
2013-02-23 21:04:00,43.1,42.3,29.79,West,270,0.0,0.0,97,0.00,,---,0.73,VWS V14.01,2013-02-24 02:04:00,
2013-02-23 21:09:00,43.1,42.3,29.80,West,270,0.0,0.0,97,0.00,,---,0.73,VWS V14.01,2013-02-24 02:09:00,
2013-02-23 21:14:00,43.1,42.3,29.80,West,270,0.0,0.0,97,0.00,,---,0.73,VWS V14.01,2013-02-24 02:14:00,
2013-02-23 21:19:00,43.1,42.3,29.80,West,270,0.0,0.0,97,0.00,,---,0.73,VWS V14.01,2013-02-24 02:19:00,
2013-02-23 21:24:00,43.1,42.3,29.79,West,270,0.0,0.0,97,0.00,,---,0.73,VWS V14.01,2013-02-24 02:24:00,
2013-02-23 21:29:00,43.2,42.4,29.80,West,270,0.0,0.0,97,0.00,,---,0.73,VWS V14.01,2013-02-24 02:29:00,
2013-02-23 21:30:00,43.2,42.4,29.80,West,270,0.0,0.0,97,0.00,,---,0.73,VWS V14.01,2013-02-24 02:30:00,
2013-02-23 21:34:00,43.2,42.4,29.80,West,270,0.0,0.0,97,0.00,,---,0.73,VWS V14.01,2013-02-24 02:34:00,
2013-02-23 21:39:00,43.2,42.4,29.78,West,270,0.0,0.0,97,0.00,,---,0.73,VWS V14.01,2013-02-24 02:39:00,
2013-02-23 21:44:00,43.2,42.4,29.79,West,270,0.0,1.0,97,0.00,,---,0.73,VWS V14.01,2013-02-24 02:44:00,
2013-02-23 21:49:00,43.2,42.4,29.79,West,270,0.0,1.0,97,0.00,,---,0.73,VWS V14.01,2013-02-24 02:49:00,
2013-02-23 21:54:00,43.2,42.4,29.79,West,270,0.0,2.0,97,0.00,,---,0.73,VWS V14.01,2013-02-24 02:54:00,
2013-02-23 21:59:00,43.2,42.4,29.79,West,270,0.0,2.0,97,0.00,,---,0.73,VWS V14.01,2013-02-24 02:59:00,
2013-02-23 22:00:00,43.2,42.4,29.79,West,270,0.0,2.0,97,0.00,,---,0.73,VWS V14.01,2013-02-24 03:00:00,
2013-02-23 22:04:00,43.2,42.4,29.79,West,270,0.0,0.0,97,0.00,,---,0.73,VWS V14.01,2013-02-24 03:04:00,
2013-02-23 22:09:00,43.2,42.4,29.79,West,270,0.0,0.0,97,0.00,,---,0.73,VWS V14.01,2013-02-24 03:09:00,
2013-02-23 22:14:00,43.2,42.4,29.78,West,270,0.0,0.0,97,0.00,,---,0.73,VWS V14.01,2013-02-24 03:14:00,
2013-02-23 22:19:00,43.2,42.4,29.78,West,270,0.0,0.0,97,0.00,,---,0.73,VWS V14.01,2013-02-24 03:19:00,
2013-02-23 22:24:00,43.2,42.4,29.78,West,270,0.0,1.0,97,0.00,,---,0.73,VWS V14.01,2013-02-24 03:24:00,
2013-02-23 22:29:00,43.2,42.4,29.77,West,270,0.0,1.0,97,0.00,,---,0.73,VWS V14.01,2013-02-24 03:29:00,
2013-02-23 22:30:00,43.2,42.4,29.77,West,270,0.0,1.0,97,0.00,,---,0.73,VWS V14.01,2013-02-24 03:30:00,
2013-02-23 22:34:00,43.2,42.4,29.77,West,270,0.0,0.0,97,0.00,,---,0.73,VWS V14.01,2013-02-24 03:34:00,
2013-02-23 22:39:00,43.2,42.4,29.76,West,270,0.0,0.0,97,0.00,,---,0.73,VWS V14.01,2013-02-24 03:39:00,
2013-02-23 22:44:00,43.2,42.4,29.76,West,270,0.0,0.0,97,0.00,,---,0.73,VWS V14.01,2013-02-24 03:44:00,
2013-02-23 22:49:00,43.2,42.4,29.76,West,270,0.0,0.0,97,0.00,,---,0.73,VWS V14.01,2013-02-24 03:49:00,
2013-02-23 22:54:00,43.2,42.4,29.75,West,270,0.0,0.0,97,0.00,,---,0.73,VWS V14.01,2013-02-24 03:54:00,
2013-02-23 22:59:00,43.2,42.4,29.75,West,270,0.0,0.0,97,0.00,,---,0.73,VWS V14.01,2013-02-24 03:59:00,
2013-02-23 23:00:00,43.2,42.4,29.75,West,270,0.0,0.0,97,0.00,,---,0.73,VWS V14.01,2013-02-24 04:00:00,
2013-02-23 23:04:00,43.2,42.4,29.75,West,270,0.0,0.0,97,0.00,,---,0.73,VWS V14.01,2013-02-24 04:04:00,
2013-02-23 23:09:00,43.2,42.4,29.75,West,270,0.0,0.0,97,0.00,,---,0.73,VWS V14.01,2013-02-24 04:09:00,
2013-02-23 23:14:00,43.2,42.4,29.75,West,270,0.0,0.0,97,0.00,,---,0.73,VWS V14.01,2013-02-24 04:14:00,
2013-02-23 23:19:00,43.2,42.4,29.75,West,270,0.0,0.0,97,0.00,,---,0.73,VWS V14.01,2013-02-24 04:19:00,
2013-02-23 23:24:00,43.2,42.4,29.76,West,270,0.0,0.0,97,0.00,,---,0.73,VWS V14.01,2013-02-24 04:24:00,
2013-02-23 23:29:00,43.2,42.4,29.77,West,270,0.0,1.0,97,0.00,,---,0.73,VWS V14.01,2013-02-24 04:29:00,
2013-02-23 23:30:00,43.2,42.4,29.77,West,270,0.0,1.0,97,0.00,,---,0.73,VWS V14.01,2013-02-24 04:30:00,
2013-02-23 23:34:00,43.2,42.4,29.77,West,270,0.0,0.0,97,0.00,,---,0.73,VWS V14.01,2013-02-24 04:34:00,
2013-02-23 23:39:00,43.1,42.3,29.78,West,270,1.0,2.0,97,0.00,,---,0.73,VWS V14.01,2013-02-24 04:39:00,
2013-02-23 23:44:00,43.1,42.3,29.78,West,270,0.0,2.0,97,0.00,,---,0.73,VWS V14.01,2013-02-24 04:44:00,
2013-02-23 23:49:00,43.1,42.3,29.78,West,270,0.0,2.0,97,0.00,,---,0.73,VWS V14.01,2013-02-24 04:49:00,
2013-02-23 23:54:00,43.1,42.3,29.78,West,270,0.0,2.0,97,0.00,,---,0.73,VWS V14.01,2013-02-24 04:54:00,
2013-02-23 23:59:00,43.2,42.4,29.78,West,270,0.0,2.0,97,0.00,,---,0.73,VWS V14.01,2013-02-24 04:59:00,